When you browse on this site, cookies collect data to enhance your experience and personalize the content and advertising you see.
Visit our Privacy Policy to learn more. By continuing to use the site, you agree to this use of cookies and data.
  • în România
  • Lista ţărilor
  • Pe 7 zile
  • Temperatura apei
  • Hartă satelitară
  • Meteo pe hartă
  • Widget-uri
  • user-avatar
    Intrare

    Meteo pe oră la Bolshie Karkaly

    Astăzi, 20 Februarie, Miercuri

    Timp Temperatura Precipitaţii Vânt Presiune Umiditate
    00:00 -22°C° 0 mm 3 m/s 724 mmHg 96%
    01:00 -20°C° 0 mm 2 m/s 725 mmHg 96%
    02:00 -21°C° 0 mm 2 m/s 725 mmHg 96%
    03:00 -23°C° 0 mm 2 m/s 725 mmHg 96%
    04:00 -18°C° 0 mm 1 m/s 725 mmHg 94%
    05:00 -18°C° 0 mm 1 m/s 725 mmHg 93%
    06:00 -17°C° 0 mm 1 m/s 726 mmHg 92%
    07:00 -17°C° 0 mm 1 m/s 726 mmHg 91%
    08:00 -16°C° 0 mm 1 m/s 727 mmHg 90%
    09:00 -15°C° 0 mm 1 m/s 727 mmHg 89%
    10:00 -14°C° 0 mm 1 m/s 727 mmHg 88%
    11:00 -15°C° 0 mm 2 m/s 727 mmHg 87%
    12:00 -14°C° 0 mm 2 m/s 727 mmHg 86%
    13:00 -13°C° 0 mm 2 m/s 727 mmHg 85%
    14:00 -14°C° 0 mm 3 m/s 727 mmHg 86%
    15:00 -14°C° 0 mm 3 m/s 727 mmHg 88%
    16:00 -14°C° 0 mm 3 m/s 727 mmHg 89%
    17:00 -16°C° 0 mm 4 m/s 727 mmHg 90%
    18:00 -16°C° 0 mm 4 m/s 727 mmHg 90%
    19:00 -18°C° 0 mm 5 m/s 727 mmHg 91%
    20:00 -17°C° 0 mm 6 m/s 727 mmHg 92%
    21:00 -16°C° 0 mm 6 m/s 727 mmHg 94%
    22:00 -17°C° 0 mm 7 m/s 727 mmHg 95%
    23:00 -15°C° 0 mm 7 m/s 727 mmHg 94%

    Mâine, 21 Februarie, Joi

    Timp Temperatura Precipitaţii Vânt Presiune Umiditate
    00:00 -14°C° 0 mm 7 m/s 727 mmHg 94%
    01:00 -14°C° 0 mm 7 m/s 727 mmHg 94%
    02:00 -14°C° 0 mm 7 m/s 727 mmHg 93%
    03:00 -13°C° 0 mm 7 m/s 726 mmHg 93%
    04:00 -13°C° 0 mm 7 m/s 726 mmHg 92%
    05:00 -13°C° 0 mm 7 m/s 726 mmHg 92%
    06:00 -14°C° 0 mm 7 m/s 726 mmHg 92%
    07:00 -14°C° 0 mm 7 m/s 726 mmHg 92%
    08:00 -14°C° 0 mm 7 m/s 726 mmHg 90%
    09:00 -13°C° 0 mm 8 m/s 726 mmHg 88%
    10:00 -13°C° 0 mm 8 m/s 727 mmHg 85%
    11:00 -12°C° 0 mm 8 m/s 727 mmHg 84%
    12:00 -12°C° 0 mm 8 m/s 727 mmHg 83%
    13:00 -11°C° 0 mm 9 m/s 727 mmHg 82%
    14:00 -11°C° 0 mm 8 m/s 727 mmHg 83%
    15:00 -11°C° 0 mm 8 m/s 727 mmHg 83%
    16:00 -10°C° 0 mm 8 m/s 727 mmHg 84%
    17:00 -10°C° 0 mm 8 m/s 727 mmHg 86%
    18:00 -10°C° 0 mm 8 m/s 727 mmHg 88%
    19:00 -9°C° 0 mm 9 m/s 727 mmHg 90%
    20:00 -9°C° 0.1 mm 9 m/s 727 mmHg 90%
    21:00 -8°C° 0.1 mm 9 m/s 727 mmHg 90%
    22:00 -8°C° 0.1 mm 9 m/s 727 mmHg 90%
    23:00 -6°C° 0.1 mm 9 m/s 726 mmHg 90%

    Poimâine, 22 Februarie, Vineri

    Timp Temperatura Precipitaţii Vânt Presiune Umiditate
    00:00 -6°C° 0.1 mm 9 m/s 726 mmHg 90%
    01:00 -6°C° 0.1 mm 9 m/s 726 mmHg 90%
    02:00 -6°C° 0.1 mm 9 m/s 726 mmHg 90%
    03:00 -8°C° 0.1 mm 9 m/s 726 mmHg 90%
    04:00 -8°C° 0.1 mm 9 m/s 725 mmHg 90%
    05:00 -8°C° 0.2 mm 9 m/s 725 mmHg 91%
    06:00 -9°C° 0.2 mm 9 m/s 725 mmHg 91%
    07:00 -9°C° 0.2 mm 9 m/s 724 mmHg 91%
    08:00 -10°C° 0.2 mm 9 m/s 724 mmHg 91%
    09:00 -10°C° 0.2 mm 9 m/s 724 mmHg 91%
    10:00 -10°C° 0.2 mm 9 m/s 724 mmHg 91%
    11:00 -10°C° 0.2 mm 9 m/s 723 mmHg 91%
    12:00 -9°C° 0.2 mm 9 m/s 723 mmHg 92%
    13:00 -9°C° 0.2 mm 9 m/s 723 mmHg 92%
    14:00 -8°C° 0.5 mm 9 m/s 723 mmHg 92%
    15:00 -7°C° 0.5 mm 8 m/s 723 mmHg 91%
    16:00 -7°C° 0.5 mm 8 m/s 723 mmHg 91%
    17:00 -7°C° 0.4 mm 7 m/s 724 mmHg 91%
    18:00 -8°C° 0.4 mm 7 m/s 724 mmHg 91%
    19:00 -9°C° 0.4 mm 7 m/s 725 mmHg 90%
    20:00 -10°C° 0 mm 6 m/s 725 mmHg 90%
    21:00 -11°C° 0 mm 6 m/s 726 mmHg 89%
    22:00 -12°C° 0 mm 6 m/s 727 mmHg 88%
    23:00 -12°C° 0 mm 6 m/s 728 mmHg 89%

    23 Februarie, Sâmbătă

    Timp Temperatura Precipitaţii Vânt Presiune Umiditate
    00:00 -12°C° 0 mm 6 m/s 728 mmHg 91%
    01:00 -14°C° 0 mm 6 m/s 729 mmHg 92%
    02:00 -12°C° 0.1 mm 6 m/s 729 mmHg 92%
    03:00 -12°C° 0.1 mm 6 m/s 730 mmHg 91%
    04:00 -11°C° 0.1 mm 6 m/s 730 mmHg 91%
    05:00 -12°C° 0.1 mm 6 m/s 731 mmHg 91%
    06:00 -12°C° 0.1 mm 6 m/s 731 mmHg 91%
    07:00 -12°C° 0.1 mm 6 m/s 731 mmHg 91%
    08:00 -13°C° 0 mm 7 m/s 732 mmHg 91%
    09:00 -14°C° 0 mm 7 m/s 732 mmHg 91%
    10:00 -14°C° 0 mm 7 m/s 733 mmHg 91%
    11:00 -14°C° 0 mm 7 m/s 733 mmHg 91%
    12:00 -13°C° 0 mm 7 m/s 733 mmHg 91%
    13:00 -13°C° 0 mm 7 m/s 734 mmHg 91%
    14:00 -14°C° 0 mm 6 m/s 734 mmHg 91%
    15:00 -14°C° 0 mm 6 m/s 734 mmHg 91%
    16:00 -14°C° 0 mm 6 m/s 734 mmHg 92%
    17:00 -14°C° 0 mm 6 m/s 735 mmHg 92%
    18:00 -14°C° 0 mm 5 m/s 735 mmHg 93%
    19:00 -14°C° 0 mm 5 m/s 735 mmHg 94%
    20:00 -14°C° 0 mm 4 m/s 736 mmHg 94%
    21:00 -15°C° 0 mm 4 m/s 736 mmHg 94%
    22:00 -15°C° 0 mm 4 m/s 736 mmHg 95%
    23:00 -15°C° 0 mm 4 m/s 736 mmHg 95%

    24 Februarie, Duminică

    Timp Temperatura Precipitaţii Vânt Presiune Umiditate
    00:00 -15°C° 0 mm 4 m/s 737 mmHg 96%
    01:00 -16°C° 0 mm 4 m/s 737 mmHg 97%
    02:00 -15°C° 0 mm 3 m/s 737 mmHg 97%
    03:00 -15°C° 0 mm 3 m/s 737 mmHg 97%
    04:00 -15°C° 0 mm 3 m/s 737 mmHg 97%
    05:00 -15°C° 0 mm 3 m/s 738 mmHg 97%
    06:00 -15°C° 0 mm 3 m/s 738 mmHg 97%
    07:00 -15°C° 0 mm 3 m/s 738 mmHg 96%
    08:00 -14°C° 0 mm 3 m/s 738 mmHg 96%
    09:00 -15°C° 0 mm 4 m/s 738 mmHg 96%
    10:00 -14°C° 0 mm 4 m/s 739 mmHg 96%
    11:00 -14°C° 0 mm 4 m/s 739 mmHg 95%
    12:00 -12°C° 0 mm 4 m/s 739 mmHg 94%
    13:00 -11°C° 0 mm 4 m/s 739 mmHg 93%
    14:00 -11°C° 0 mm 4 m/s 739 mmHg 93%
    15:00 -11°C° 0 mm 4 m/s 739 mmHg 93%
    16:00 -11°C° 0 mm 4 m/s 739 mmHg 93%
    17:00 -12°C° 0 mm 4 m/s 739 mmHg 94%
    18:00 -13°C° 0 mm 3 m/s 739 mmHg 95%
    19:00 -13°C° 0 mm 3 m/s 739 mmHg 96%
    20:00 -13°C° 0 mm 3 m/s 738 mmHg 96%
    21:00 -13°C° 0 mm 3 m/s 738 mmHg 96%
    22:00 -13°C° 0 mm 3 m/s 738 mmHg 96%
    23:00 -13°C° 0.1 mm 3 m/s 738 mmHg 96%

    25 Februarie, Luni

    Timp Temperatura Precipitaţii Vânt Presiune Umiditate
    00:00 -12°C° 0.1 mm 3 m/s 738 mmHg 96%
    01:00 -12°C° 0.1 mm 3 m/s 738 mmHg 96%
    02:00 -12°C° 0.1 mm 3 m/s 737 mmHg 96%
    03:00 -10°C° 0.1 mm 3 m/s 737 mmHg 96%
    04:00 -10°C° 0.1 mm 3 m/s 737 mmHg 96%
    05:00 -10°C° 0 mm 3 m/s 737 mmHg 96%
    06:00 -10°C° 0 mm 3 m/s 736 mmHg 96%
    07:00 -9°C° 0 mm 2 m/s 736 mmHg 97%
    08:00 -9°C° 0.1 mm 3 m/s 736 mmHg 96%
    09:00 -8°C° 0.1 mm 3 m/s 736 mmHg 96%
    10:00 -8°C° 0.1 mm 3 m/s 736 mmHg 95%
    11:00 -8°C° 0.2 mm 4 m/s 735 mmHg 95%
    12:00 -8°C° 0.2 mm 4 m/s 735 mmHg 94%
    13:00 -7°C° 0.2 mm 4 m/s 734 mmHg 94%
    14:00 -7°C° 0.2 mm 4 m/s 733 mmHg 94%
    15:00 -7°C° 0.2 mm 4 m/s 733 mmHg 94%
    16:00 -7°C° 0.2 mm 4 m/s 732 mmHg 94%
    17:00 -8°C° 0.3 mm 4 m/s 732 mmHg 94%
    18:00 -8°C° 0.3 mm 4 m/s 731 mmHg 95%
    19:00 -8°C° 0.3 mm 4 m/s 731 mmHg 95%
    20:00 -8°C° 0.4 mm 4 m/s 730 mmHg 95%
    21:00 -8°C° 0.4 mm 4 m/s 730 mmHg 95%
    22:00 -8°C° 0.4 mm 5 m/s 729 mmHg 95%
    23:00 -8°C° 0.4 mm 5 m/s 728 mmHg 95%
    Arată mai mult